[[{"header":{"parameterUnit":"m.s-1","parameterCategory":1,"la1":30.2991,"la2":30.254,"lo1":-89.0895,"lo2":-89.0444,"dy":0.0017,"dx":0.0017,"nx":28,"ny":28,"refTime":"2024-04-12T09:00:00:Z","depth":0,"parameterNumber":2,"parameterNumberName":"U-component_of_WINDS"},"data":[0,0,0,0,0,0,0,0,0,0,0,0,0,0,0,0,0,0,0,0,0,0,0,0,0,0,0,0,0,0,0,0,0,0,0,0,0,0,0,0,0,0,0,0,0,0,0,0,0,0,0,0,0,0,0,0,0,0,1.491,1.4911,0,1.4997,1.4998,1.4999,1.5012,1.5011,1.5011,1.501,1.5098,1.5101,1.5104,0,0,0,0,0,0,0,0,0,0,0,0,0,1.4752,1.4755,1.491,1.4911,1.4912,1.4997,1.4998,1.5,1.5012,1.5011,1.501,1.501,1.5097,1.5101,1.5105,0,0,0,0,0,0,0,0,0,0,0,0,0,1.4828,1.4756,1.491,1.4929,1.4931,1.4997,1.4998,1.5,1.5013,1.5011,1.501,1.5009,1.5096,1.5101,1.5105,1.5157,0,0,1.5119,1.5121,0,0,0,0,0,0,0,0,1.4824,1.4834,1.4925,1.4928,1.4931,1.4993,1.4975,1.5053,1.5013,1.4982,1.501,1.5008,1.5064,1.5071,1.509,1.5161,1.5165,1.512,1.5122,1.5124,1.5126,0,0,0,0,0,0,0,1.4818,1.483,1.4945,1.4926,1.493,1.4932,1.4942,1.499,1.5028,1.4984,1.4986,1.4996,1.5065,1.5086,1.5092,1.5167,1.5119,1.5124,1.5126,1.5128,1.5282,1.5283,0,0,0,0,0,0,1.481,1.4826,1.4942,1.4947,1.4873,1.4936,1.4947,1.4974,1.5028,1.5035,1.4997,1.4996,1.5078,1.5087,1.5095,1.5158,1.5124,1.5129,1.5131,1.5281,1.5282,1.5284,0,0,0,0,0,0,1.4806,1.482,1.4938,1.4887,1.4902,1.494,1.4971,1.4976,1.4997,1.5037,1.5044,1.501,1.5078,1.5089,1.5141,1.5161,1.5131,1.5135,1.5279,1.5281,1.5283,1.5285,0,0,0,0,0,0,1.4802,1.4819,1.484,1.4887,1.4905,1.4983,1.4972,1.4979,1.5005,1.5005,1.5052,1.5059,1.5078,1.5134,1.5146,1.5167,1.5139,1.5278,1.528,1.5283,1.5283,1.5287,1.529,0,0,0,0,0,1.4796,1.4837,1.4841,1.4855,1.4932,1.4985,1.4994,1.5016,1.5006,1.5027,1.5053,1.5057,1.5158,1.514,1.5153,1.5176,1.5276,1.5279,1.5282,1.5282,1.5286,1.529,0,0,0,0,0,0,1.4791,1.4844,1.4848,1.4906,1.4941,1.4987,1.5014,1.502,1.5058,1.5056,1.5081,1.5091,1.5142,1.5164,1.5143,1.5228,1.5216,1.5222,1.5211,1.5216,1.5219,1.5212,1.5142,0,0,0,0,0,1.4797,1.4836,1.488,1.4926,1.4944,1.4975,1.4999,1.5013,1.5049,1.5064,1.5094,1.5129,1.5168,1.5193,1.5232,1.5287,1.5296,1.5309,1.5312,1.5315,1.5319,1.5347,1.5353,1.5294,1.5294,1.5293,0,0,1.4809,1.4843,1.4866,1.4926,1.4955,1.4993,1.4988,1.503,1.5058,1.507,1.5121,1.5144,1.5184,1.5237,1.5263,1.5258,1.5337,1.5318,1.532,1.5323,1.5351,1.5356,1.5361,1.5296,1.5295,1.5295,0,0,1.4851,1.4881,1.4922,1.495,1.4993,1.5014,1.5023,1.5068,1.5083,1.5135,1.5144,1.5178,1.5246,1.5273,1.5296,1.5346,1.5351,1.5358,1.5375,1.5402,1.5407,1.5411,1.5427,1.5432,1.5362,1.5362,1.5362,0,1.486,1.492,1.4942,1.4983,1.5008,1.5021,1.5061,1.5088,1.5141,1.5157,1.5151,1.5235,1.5263,1.5322,1.5334,1.5353,1.5363,1.5352,1.5404,1.5409,1.5413,1.5428,1.5434,1.5363,1.5363,1.5363,1.5363,0,1.4928,1.4969,1.4997,1.5047,1.5076,1.5116,1.5144,1.517,1.518,1.5201,1.5252,1.5286,1.5331,1.5346,1.5357,1.5406,1.5401,1.5399,1.5388,1.5419,1.5433,1.544,1.5364,1.5363,1.5363,1.5363,0,0,1.4969,1.503,1.504,1.5062,1.5109,1.5141,1.5181,1.5225,1.5246,1.5282,1.5315,1.5371,1.5369,1.5395,1.5409,1.5433,1.5468,1.5429,1.543,1.5433,1.5521,1.5521,1.5527,1.5472,1.5473,1.5474,1.5517,0,1.5015,1.5087,1.5108,1.5169,1.5205,1.5217,1.5252,1.5284,1.5304,1.5338,1.536,1.5398,1.5394,1.541,1.5434,1.5458,1.5485,1.5456,1.5501,1.5502,1.5489,1.5535,1.5536,1.5575,1.5523,1.5524,1.5525,0,1.5078,1.5114,1.5178,1.5219,1.5235,1.5266,1.5306,1.5339,1.5375,1.5388,1.5416,1.5427,1.5468,1.5455,1.5511,1.549,1.551,1.5524,1.5526,1.553,1.5515,1.5539,1.5588,1.5593,1.5534,1.5534,1.5533,0,1.5099,1.5164,1.521,1.5229,1.5278,1.5299,1.532,1.5355,1.5379,1.5414,1.543,1.5469,1.5491,1.552,1.5541,1.553,1.5595,1.5584,1.5605,1.5604,1.5617,1.5616,1.5669,1.5633,1.5633,1.5632,1.5632,0,1.5146,1.5185,1.522,1.5248,1.5291,1.5314,1.5355,1.5377,1.5407,1.5439,1.5452,1.5481,1.5508,1.5541,1.5557,1.56,1.561,1.562,1.5624,1.5618,1.5617,1.5631,1.5628,1.5634,1.5634,1.5633,1.5633,0,1.5177,1.5202,1.5253,1.5295,1.5306,1.5336,1.5371,1.5398,1.5418,1.5458,1.5469,1.55,1.5539,1.5563,1.5613,1.5624,1.567,1.5674,1.5658,1.5659,1.5678,1.5676,1.5741,1.575,1.5709,1.5709,1.571,0,1.5205,1.5235,1.5279,1.5301,1.5323,1.5359,1.5383,1.5406,1.543,1.5472,1.5494,1.5534,1.5566,1.5628,1.5654,1.5692,1.5695,1.5716,1.5701,1.5694,1.5694,1.5691,1.5693,1.5718,1.5718,1.5718,1.5719,0,1.5251,1.5262,1.5297,1.5335,1.5364,1.5396,1.5427,1.5444,1.5472,1.5499,1.5539,1.5564,1.5614,1.5652,1.5692,1.5713,1.572,1.5723,1.5729,1.5723,1.5712,1.5716,1.5663,1.5721,1.5721,1.5721,1.5721,1.572,1.528,1.5306,1.5341,1.5379,1.5405,1.5433,1.546,1.5484,1.5517,1.5559,1.5571,1.5612,1.5645,1.5699,1.572,1.5752,1.5749,1.5759,1.5761,1.5763,1.5762,1.5708,1.5759,1.5759,1.5759,1.5759,1.5759,0,1.5326,1.5348,1.5383,1.5426,1.5455,1.546,1.5494,1.5518,1.5554,1.5584,1.5616,1.566,1.5697,1.5727,1.5764,1.5784,1.5788,1.5793,1.5791,1.5795,1.5764,1.5753,1.5789,1.5789,1.5789,1.5789,1.5789,1.5789,1.5353,1.5396,1.5411,1.5466,1.5489,1.5529,1.5548,1.5574,1.5598,1.5647,1.5678,1.5697,1.5726,1.5766,1.5799,1.5807,1.5819,1.5823,1.5831,1.5801,1.5798,1.5794,1.5785,1.5826,1.5826,1.586,1.586,1.586]},{"header":{"parameterUnit":"m.s-1","parameterCategory":1,"la1":30.2991,"la2":30.254,"lo1":-89.0895,"lo2":-89.0444,"dy":0.0017,"dx":0.0017,"nx":28,"ny":28,"refTime":"2024-04-12T09:00:00:Z","depth":0,"parameterNumber":3,"parameterNumberName":"V-component_of_WINDS"},"data":[0,0,0,0,0,0,0,0,0,0,0,0,0,0,0,0,0,0,0,0,0,0,0,0,0,0,0,0,0,0,0,0,0,0,0,0,0,0,0,0,0,0,0,0,0,0,0,0,0,0,0,0,0,0,0,0,0,0,4.0944,4.0944,0,4.0951,4.0951,4.0951,4.0872,4.087,4.0867,4.0865,4.0873,4.0875,4.0877,0,0,0,0,0,0,0,0,0,0,0,0,0,4.086,4.0862,4.0944,4.0944,4.0944,4.0951,4.0951,4.0951,4.0872,4.087,4.0867,4.0864,4.0872,4.0875,4.0877,0,0,0,0,0,0,0,0,0,0,0,0,0,4.0885,4.0863,4.0943,4.0905,4.0902,4.0951,4.0951,4.0951,4.0873,4.0869,4.0866,4.0863,4.0871,4.0874,4.0878,4.0963,0,0,4.0888,4.0889,0,0,0,0,0,0,0,0,4.0883,4.0888,4.0911,4.0908,4.0904,4.0907,4.0924,4.0955,4.0874,4.0884,4.0865,4.0862,4.0887,4.0889,4.0897,4.0964,4.0964,4.0888,4.089,4.0892,4.0893,0,0,0,0,0,0,0,4.0882,4.0887,4.0946,4.0911,4.0907,4.0887,4.0887,4.0929,4.0904,4.0883,4.0877,4.0879,4.0884,4.0894,4.0897,4.0964,4.0888,4.0891,4.0893,4.0894,4.1098,4.1102,0,0,0,0,0,0,4.0885,4.0886,4.0946,4.0946,4.0886,4.0891,4.0891,4.0909,4.0903,4.0899,4.0882,4.0875,4.089,4.0893,4.0897,4.0994,4.0892,4.0895,4.0897,4.1095,4.1099,4.1103,0,0,0,0,0,0,4.0884,4.0892,4.0946,4.0915,4.092,4.0896,4.0917,4.0911,4.0921,4.0902,4.0897,4.0896,4.0888,4.0892,4.0947,4.0994,4.0896,4.0899,4.1091,4.1096,4.1101,4.1192,0,0,0,0,0,0,4.0882,4.0891,4.0924,4.0916,4.0922,4.0997,4.092,4.0914,4.0927,4.0918,4.0915,4.0911,4.0885,4.0942,4.095,4.0996,4.0902,4.1086,4.1093,4.1099,4.1185,4.1199,4.1212,0,0,0,0,0,4.0879,4.095,4.0926,4.0934,4.0963,4.0999,4.1003,4.0972,4.0931,4.0963,4.0951,4.0911,4.0987,4.0948,4.0957,4.1005,4.1083,4.1091,4.1099,4.1178,4.1197,4.1212,0,0,0,0,0,0,4.0966,4.0949,4.0922,4.0993,4.0998,4.0986,4.1026,4.0993,4.101,4.1001,4.0962,4.0962,4.1023,4.1019,4.0976,4.1086,4.1028,4.1038,4.1086,4.1103,4.1116,4.1115,4.0905,0,0,0,0,0,4.0993,4.1024,4.1008,4.1072,4.1076,4.1051,4.1065,4.1041,4.1045,4.1047,4.1038,4.1044,4.1068,4.1086,4.1108,4.1184,4.1181,4.1221,4.1235,4.1246,4.1255,4.1292,4.1309,4.1128,4.1128,4.1128,0,0,4.105,4.1044,4.1066,4.1089,4.109,4.1122,4.1053,4.1091,4.1114,4.1053,4.1103,4.1097,4.11,4.1165,4.1194,4.1164,4.1304,4.1256,4.1265,4.1267,4.1302,4.1319,4.1334,4.1133,4.1132,4.1131,0,0,4.1169,4.1169,4.1221,4.1223,4.1225,4.1207,4.122,4.1213,4.1206,4.1256,4.121,4.1237,4.1281,4.1284,4.1292,4.141,4.1373,4.1419,4.149,4.1528,4.1542,4.1554,4.1595,4.161,4.1427,4.1428,4.1428,0,4.1239,4.1286,4.1252,4.1292,4.1302,4.1247,4.1298,4.1302,4.1312,4.132,4.1287,4.134,4.1338,4.1402,4.1431,4.1439,4.1451,4.1418,4.1543,4.1555,4.1566,4.1604,4.1619,4.1433,4.1432,4.1432,4.1431,0,4.1371,4.1404,4.1446,4.1455,4.147,4.1516,4.1488,4.1507,4.1481,4.1467,4.1517,4.1513,4.1532,4.1546,4.1522,4.1606,4.1587,4.1549,4.149,4.1589,4.1624,4.1638,4.144,4.1439,4.1437,4.1436,0,0,4.1546,4.1534,4.155,4.1552,4.1549,4.1574,4.1617,4.1635,4.1651,4.1659,4.1693,4.1731,4.1695,4.1703,4.1679,4.1711,4.1803,4.1669,4.1668,4.1692,4.1893,4.192,4.1938,4.1779,4.1781,4.1783,4.1892,0,4.166,4.1732,4.1701,4.1775,4.1804,4.1751,4.1788,4.179,4.1777,4.18,4.1786,4.1812,4.1764,4.1768,4.1799,4.1785,4.1842,4.1777,4.1808,4.181,4.1808,4.1956,4.1986,4.2089,4.1906,4.1908,4.191,0,4.1804,4.1816,4.1893,4.1882,4.1893,4.1927,4.194,4.1962,4.1963,4.1951,4.196,4.1927,4.1967,4.1909,4.1963,4.1919,4.193,4.1925,4.1929,4.1929,4.1865,4.1959,4.2121,4.2136,4.1931,4.1929,4.1928,0,4.1921,4.1957,4.2006,4.2011,4.2001,4.2025,4.2022,4.2019,4.2031,4.2042,4.2049,4.2066,4.2074,4.2087,4.2059,4.202,4.2116,4.2057,4.2107,4.2107,4.2128,4.2127,4.2292,4.2138,4.2138,4.2138,4.2138,0,4.2051,4.2099,4.2058,4.2089,4.2141,4.2105,4.2158,4.2149,4.2147,4.2174,4.213,4.2156,4.2119,4.2141,4.212,4.2166,4.2171,4.2162,4.2156,4.2165,4.2166,4.2171,4.2162,4.2142,4.2141,4.214,4.214,0,4.219,4.2165,4.2215,4.2201,4.2198,4.2237,4.2224,4.2252,4.2235,4.227,4.2277,4.2251,4.2276,4.2249,4.2272,4.2257,4.2319,4.2303,4.2319,4.2314,4.2365,4.236,4.2537,4.2558,4.2393,4.2394,4.2396,0,4.2274,4.231,4.2298,4.2313,4.2312,4.2337,4.2348,4.2313,4.2327,4.2329,4.2356,4.2376,4.239,4.2431,4.2415,4.2432,4.2414,4.2476,4.2417,4.2424,4.2413,4.2411,4.2413,4.2487,4.2489,4.2491,4.2492,0,4.2425,4.241,4.2428,4.2441,4.2455,4.2464,4.247,4.2485,4.2448,4.2466,4.2489,4.25,4.2522,4.2542,4.2554,4.255,4.2515,4.2511,4.2523,4.2532,4.2539,4.2534,4.235,4.2507,4.2505,4.2504,4.2503,4.2503,4.2538,4.2566,4.2561,4.2582,4.2582,4.2588,4.2612,4.2598,4.2617,4.2631,4.261,4.2639,4.2636,4.2648,4.2649,4.267,4.2644,4.2662,4.2667,4.2671,4.2678,4.2537,4.2673,4.2672,4.2672,4.2671,4.2671,0,4.2684,4.2678,4.2698,4.2706,4.2722,4.2686,4.269,4.2706,4.2731,4.2732,4.2746,4.2772,4.2791,4.2776,4.2792,4.2812,4.2796,4.2817,4.2814,4.2814,4.2701,4.2688,4.2829,4.2829,4.2829,4.2829,4.2829,4.2829,4.2763,4.2807,4.2792,4.2836,4.2829,4.2856,4.2861,4.2866,4.2866,4.2896,4.2911,4.2901,4.2895,4.2909,4.2925,4.292,4.2927,4.2953,4.2942,4.2837,4.2822,4.2807,4.2794,4.2955,4.2956,4.3052,4.3053,4.3054]}]]